Weather History for KOKK - January, 2013

Change the Weather History Date:

Wednesday, January 30, 2013

  Actual Average (KGUS) Record (KGUS)
Temperature  
Mean Temperature 40 °F -  
Max Temperature 53 °F 31 °F 61 °F (2013)
Min Temperature 24 °F 19 °F -5 °F (2004)
Degree Days  
Heating Degree Days 26    
Moisture  
Dew Point 41 °F    
Average Humidity 90    
Maximum Humidity 100    
Minimum Humidity 74    
Precipitation  
Precipitation 0.88 in - - ()
Sea Level Pressure  
Sea Level Pressure 29.37 in    
Wind  
Wind Speed 17 mph (WSW)    
Max Wind Speed 36 mph    
Max Gust Speed 44 mph    
Visibility 8 miles    
Events      
Averages and records for this station are not official NWS values.
T = Trace of Precipitation, MM = Missing Value Source: NWS Daily Summary

Daily Weather History Graph

Daily Weather History Graph

Search for Another Location

Airport or City:

Trip Planner

Search our weather history database for the weather conditions in past years. The results will help you decide how hot, cold, wet, or windy it might be!

Date:

Astronomy

Jan. 30, 2013 Rise Set
Actual Time 6:55 AM CST 5:00 PM CST
Civil Twilight 6:26 AM CST 5:29 PM CST
Nautical Twilight 5:53 AM CST 6:01 PM CST
Astronomical Twilight 5:21 AM CST 6:34 PM CST
Moon 8:59 PM CST (1/30) 8:21 AM CST (1/30)
Length of Visible Light 11h 02m
Length of Day
10h 04m
Waning Gibbous, 87% of the Moon is Illuminated
Jan 30
Waning Gibbous
Feb 3
Last Quarter
Feb 10
New
Feb 17
First Quarter
Feb 25
Full

Hourly Weather History & Observations

Time (CST) Temp. Windchill Dew Point Humidity Pressure Visibility Wind Dir Wind Speed Gust Speed Precip Events Conditions
12:35 AM 53.6 °F - 51.8 °F 94% 29.38 in 7.0 mi NW 24.2 mph 40.3 mph 0.30 in   Mostly Cloudy
12:55 AM 53.6 °F - 51.8 °F 94% 29.41 in 10.0 mi NW 25.3 mph 32.2 mph 0.37 in   Overcast
1:15 AM 53.6 °F - 51.8 °F 94% 29.42 in 10.0 mi NW 20.7 mph 27.6 mph 0.02 in   Overcast
1:35 AM 51.8 °F - 50.0 °F 94% 29.41 in 10.0 mi NNW 11.5 mph 21.9 mph 0.05 in   Overcast
1:55 AM 51.8 °F - 50.0 °F 94% 29.41 in 10.0 mi North 8.1 mph - 0.08 in   Overcast
2:15 AM 51.8 °F - 50.0 °F 94% 29.41 in 10.0 mi NW 3.5 mph - 0.03 in   Overcast
2:35 AM 51.8 °F - 48.2 °F 88% 29.42 in 10.0 mi Calm Calm - 0.05 in   Overcast
2:55 AM 50.0 °F - 48.2 °F 94% 29.42 in 10.0 mi South 5.8 mph - 0.07 in   Overcast
3:15 AM 50.0 °F - 48.2 °F 94% 29.41 in 10.0 mi SW 4.6 mph - 0.03 in   Overcast
3:35 AM 50.0 °F - 48.2 °F 94% 29.43 in 5.0 mi WSW 10.4 mph - 0.06 in   Overcast
3:55 AM 50.0 °F - 48.2 °F 94% 29.42 in 9.0 mi SSW 6.9 mph - 0.13 in   Overcast
4:15 AM 48.2 °F - 46.4 °F 93% 29.40 in 7.0 mi SSE 9.2 mph - 0.07 in   Mostly Cloudy
4:35 AM 48.2 °F - 48.2 °F 100% 29.36 in 8.0 mi SSE 10.4 mph - 0.07 in   Mostly Cloudy
4:55 AM 48.2 °F - 48.2 °F 100% 29.37 in 7.0 mi South 10.4 mph - 0.08 in   Mostly Cloudy
5:15 AM 48.2 °F - 46.4 °F 93% 29.38 in 10.0 mi South 9.2 mph - N/A   Scattered Clouds
5:35 AM 48.2 °F - 46.4 °F 93% 29.32 in 9.0 mi SE 12.7 mph - N/A   Mostly Cloudy
5:55 AM 48.2 °F - 46.4 °F 93% 29.32 in 9.0 mi SSE 10.4 mph - N/A   Overcast
6:15 AM 48.2 °F - 46.4 °F 93% 29.36 in 10.0 mi South 10.4 mph - N/A   Overcast
6:35 AM 48.2 °F - 46.4 °F 93% 29.31 in 10.0 mi SSE 15.0 mph - N/A   Overcast
6:55 AM 48.2 °F - 46.4 °F 93% 29.29 in 3.0 mi South 16.1 mph - N/A   Overcast
7:15 AM 48.2 °F - 46.4 °F 93% 29.30 in 10.0 mi South 15.0 mph - N/A   Overcast
7:35 AM 48.2 °F - 48.2 °F 100% 29.33 in 10.0 mi South 16.1 mph 20.7 mph N/A   Scattered Clouds
7:55 AM 48.2 °F - 48.2 °F 100% 29.33 in 10.0 mi South 15.0 mph - N/A   Partly Cloudy
8:15 AM 48.2 °F - 46.4 °F 93% 29.36 in 10.0 mi SSW 17.3 mph - N/A   Scattered Clouds
8:35 AM 48.2 °F - 48.2 °F 100% 29.37 in 10.0 mi WSW 12.7 mph - N/A   Overcast
8:55 AM 48.2 °F - 48.2 °F 100% 29.36 in 8.0 mi WSW 9.2 mph - N/A   Overcast
9:15 AM 50.0 °F - 48.2 °F 94% 29.35 in 5.0 mi SW 9.2 mph - N/A   Overcast
9:35 AM 50.0 °F - 48.2 °F 94% 29.35 in 5.0 mi SW 10.4 mph - N/A   Overcast
9:55 AM 50.0 °F - 48.2 °F 94% 29.33 in 5.0 mi SW 9.2 mph - N/A   Overcast
10:15 AM 51.8 °F - 48.2 °F 88% 29.33 in 7.0 mi SSW 13.8 mph 17.3 mph N/A   Overcast
10:35 AM 51.8 °F - 48.2 °F 88% 29.33 in 10.0 mi SW 15.0 mph 21.9 mph N/A   Overcast
10:55 AM 51.8 °F - 48.2 °F 88% 29.31 in 7.0 mi SW 16.1 mph 23.0 mph N/A   Overcast
11:15 AM 51.8 °F - 48.2 °F 88% 29.30 in 10.0 mi SW 13.8 mph - N/A   Overcast
11:35 AM 51.8 °F - 48.2 °F 88% 29.30 in 4.0 mi SW 16.1 mph 20.7 mph N/A   Overcast
11:55 AM 51.8 °F - 48.2 °F 88% 29.31 in 10.0 mi SW 19.6 mph 27.6 mph N/A   Mostly Cloudy
12:15 PM 51.8 °F - 48.2 °F 88% 29.28 in 10.0 mi SW 19.6 mph 26.5 mph N/A   Overcast
12:35 PM 53.6 °F - 50.0 °F 88% 29.27 in 10.0 mi SW 19.6 mph 27.6 mph N/A   Mostly Cloudy
12:55 PM 53.6 °F - 48.2 °F 82% 29.25 in 10.0 mi SW 19.6 mph 26.5 mph N/A   Overcast
1:15 PM 51.8 °F - 46.4 °F 82% 29.24 in 10.0 mi SW 18.4 mph 31.1 mph N/A   Overcast
1:35 PM 51.8 °F - 48.2 °F 88% 29.23 in 10.0 mi SW 12.7 mph - 0.05 in   Mostly Cloudy
1:55 PM 51.8 °F - 48.2 °F 88% 29.24 in 9.0 mi SW 18.4 mph - 0.10 in   Overcast
2:15 PM 46.4 °F 39.2 °F 42.8 °F 87% 29.25 in 9.0 mi West 18.4 mph 33.4 mph 0.02 in   Overcast
2:35 PM 44.6 °F 37.2 °F 41.0 °F 87% 29.26 in 10.0 mi West 17.3 mph - 0.02 in   Overcast
2:55 PM 42.8 °F 33.3 °F 37.4 °F 81% 29.28 in 10.0 mi West 24.2 mph - 0.02 in   Overcast
3:15 PM 41.0 °F 31.9 °F 39.2 °F 93% 29.29 in 7.0 mi West 19.6 mph - N/A   Overcast
3:35 PM 39.2 °F 30.2 °F 37.4 °F 93% 29.29 in 8.0 mi West 17.3 mph 27.6 mph 0.02 in   Overcast
3:55 PM 39.2 °F 28.3 °F 35.6 °F 87% 29.30 in 10.0 mi West 25.3 mph 32.2 mph 0.03 in   Overcast
4:15 PM 37.4 °F 27.5 °F 33.8 °F 87% 29.32 in 9.0 mi West 18.4 mph 28.8 mph N/A   Overcast
4:35 PM 37.4 °F 27.2 °F 33.8 °F 87% 29.32 in 8.0 mi West 19.6 mph 24.2 mph N/A   Overcast
4:55 PM 37.4 °F 26.6 °F 32.0 °F 81% 29.32 in 10.0 mi West 21.9 mph 29.9 mph N/A   Overcast
5:15 PM 37.4 °F 26.6 °F 32.0 °F 81% 29.33 in 10.0 mi West 21.9 mph 31.1 mph N/A   Overcast
5:35 PM 35.6 °F 21.5 °F 33.8 °F 93% 29.36 in 7.0 mi West 35.7 mph 39.1 mph N/A   Overcast
5:55 PM 35.6 °F 23.0 °F 30.2 °F 81% 29.37 in 7.0 mi West 27.6 mph 36.8 mph N/A   Overcast
6:15 PM 33.8 °F 21.9 °F 32.0 °F 93% 29.38 in 6.0 mi West 21.9 mph 29.9 mph N/A   Overcast
6:35 PM 33.8 °F 21.3 °F 30.2 °F 87% 29.40 in 7.0 mi West 24.2 mph 38.0 mph N/A   Overcast
6:55 PM 33.8 °F 20.3 °F 30.2 °F 87% 29.39 in 5.0 mi West 28.8 mph 40.3 mph N/A   Overcast
7:15 PM 32.0 °F 18.6 °F 28.4 °F 87% 29.40 in 4.0 mi West 25.3 mph 35.7 mph N/A   Overcast
7:35 PM 32.0 °F 17.9 °F 28.4 °F 87% 29.42 in 2.5 mi West 28.8 mph 36.8 mph N/A   Overcast
7:55 PM 30.2 °F 15.9 °F 28.4 °F 93% 29.42 in 4.0 mi West 26.5 mph 34.5 mph N/A   Overcast
8:15 PM 30.2 °F 15.9 °F 28.4 °F 93% 29.43 in 4.0 mi West 26.5 mph 34.5 mph N/A   Overcast
8:35 PM 30.2 °F 17.1 °F 28.4 °F 93% 29.44 in 3.0 mi West 21.9 mph 27.6 mph N/A   Overcast
8:55 PM 30.2 °F 15.9 °F 28.4 °F 93% 29.46 in 7.0 mi West 26.5 mph 32.2 mph N/A   Overcast
9:15 PM 30.2 °F 14.9 °F 26.6 °F 86% 29.47 in 4.0 mi West 31.1 mph 36.8 mph N/A   Overcast
9:35 PM 28.4 °F 14.1 °F 26.6 °F 93% 29.49 in 3.0 mi West 24.2 mph 32.2 mph N/A   Overcast
9:55 PM 28.4 °F 13.0 °F 26.6 °F 93% 29.51 in 4.0 mi West 28.8 mph 40.3 mph N/A   Overcast
10:15 PM 28.4 °F 13.5 °F 24.8 °F 86% 29.52 in 8.0 mi WNW 26.5 mph 35.7 mph N/A   Overcast
10:35 PM 28.4 °F 12.5 °F 24.8 °F 86% 29.54 in 10.0 mi West 31.1 mph 38.0 mph N/A   Overcast
10:55 PM 26.6 °F 9.3 °F 23.0 °F 86% 29.56 in 8.0 mi West 34.5 mph 40.3 mph N/A   Overcast
11:15 PM 26.6 °F 9.3 °F 21.2 °F 80% 29.58 in 9.0 mi West 34.5 mph 43.7 mph N/A   Overcast
11:35 PM 26.6 °F 10.0 °F 19.4 °F 74% 29.58 in 9.0 mi WNW 31.1 mph 42.6 mph N/A   Overcast
11:55 PM 24.8 °F 7.1 °F 19.4 °F 80% 29.60 in 8.0 mi West 33.4 mph 41.4 mph N/A   Overcast